| time (UTC) | temp C | wind direction | speed KPH | gust KPH | rain 1hr cm | rain 24hr cm | rain mn cm | humidity % | barometer mb |
| 20260505171036 | 27 | 215 | 4.8 | 4.8 | 0.00 | 0.00 | 0.00 | 73 | 1006.2 |
| 20260505170035 | 27 | 200 | 14.5 | 17.7 | 0.00 | 0.00 | 0.00 | 71 | 1006.1 |
| 20260505165032 | 26 | 232 | 16.1 | 17.7 | 0.00 | 0.00 | 0.00 | 73 | 1006.1 |
| 20260505164032 | 26 | 174 | 11.3 | 16.1 | 0.00 | 0.00 | 0.00 | 74 | 1006.1 |
| 20260505163027 | 26 | 222 | 9.7 | 14.5 | 0.00 | 0.00 | 0.00 | 76 | 1005.9 |
| 20260505162023 | 26 | 164 | 12.9 | 20.9 | 0.00 | 0.00 | 0.00 | 76 | 1006.0 |
| 20260505161023 | 25 | 173 | 11.3 | 17.7 | 0.00 | 0.00 | 0.00 | 76 | 1005.7 |
| 20260505153015 | 25 | 123 | 6.4 | 11.3 | 0.00 | 0.00 | 0.00 | 79 | 1005.7 |
| 20260505152013 | 24 | 160 | 4.8 | 8.0 | 0.00 | 0.00 | 0.00 | 80 | 1005.8 |
| 20260505151011 | 23 | 190 | 16.1 | 17.7 | 0.00 | 0.00 | 0.00 | 81 | 1006.0 |
| 20260505124949 | 21 | 196 | 6.4 | 9.7 | 0.00 | 0.00 | 0.00 | 86 | 1005.8 |
| 20260505123947 | 21 | 165 | 8.0 | 9.7 | 0.00 | 0.00 | 0.00 | 86 | 1005.6 |
| 20260505122946 | 21 | 190 | 6.4 | 11.3 | 0.00 | 0.00 | 0.00 | 86 | 1005.3 |
| 20260505121946 | 21 | 174 | 9.7 | 16.1 | 0.00 | 0.00 | 0.00 | 86 | 1005.5 |
| 20260505120944 | 21 | 202 | 8.0 | 12.9 | 0.00 | 0.00 | 0.00 | 86 | 1004.9 |
| 20260505115940 | 21 | 196 | 11.3 | 16.1 | 0.00 | 0.00 | 0.00 | 86 | 1005.0 |
| 20260505114935 | 21 | 232 | 3.2 | 8.0 | 0.00 | 0.00 | 0.00 | 86 | 1005.0 |
| 20260505113934 | 21 | 188 | 8.0 | 9.7 | 0.00 | 0.00 | 0.00 | 86 | 1005.0 |
| 20260505112932 | 21 | 159 | 12.9 | 16.1 | 0.00 | 0.00 | 0.00 | 86 | 1004.9 |
| 20260505111931 | 21 | 193 | 4.8 | 8.0 | 0.00 | 0.00 | 0.00 | 86 | 1005.1 |
| 20260505110929 | 21 | 157 | 11.3 | 14.5 | 0.00 | 0.00 | 0.00 | 86 | 1004.8 |
| 20260505101926 | 21 | 166 | 6.4 | 11.3 | 0.00 | 0.00 | 0.00 | 86 | 1004.9 |
| 20260505100922 | 21 | 229 | 8.0 | 9.7 | 0.00 | 0.00 | 0.00 | 86 | 1004.8 |
| 20260505095921 | 21 | 179 | 8.0 | 11.3 | 0.00 | 0.00 | 0.00 | 85 | 1005.0 |
| 20260505094920 | 21 | 214 | 16.1 | 25.7 | 0.00 | 0.00 | 0.00 | 86 | 1005.1 |
| 20260505093919 | 21 | 202 | 19.3 | 27.4 | 0.00 | 0.00 | 0.00 | 86 | 1005.1 |
| 20260505092919 | 21 | 208 | 12.9 | 17.7 | 0.00 | 0.00 | 0.00 | 86 | 1005.3 |
| 20260505091914 | 21 | 221 | 12.9 | 16.1 | 0.00 | 0.00 | 0.00 | 86 | 1005.3 |
| 20260505090909 | 21 | 217 | 11.3 | 16.1 | 0.00 | 0.00 | 0.00 | 86 | 1005.3 |
| 20260505085904 | 21 | 166 | 8.0 | 12.9 | 0.00 | 0.00 | 0.00 | 86 | 1005.0 |
| 20260505084900 | 21 | 182 | 8.0 | 9.7 | 0.00 | 0.00 | 0.00 | 86 | 1005.1 |
| 20260505083856 | 21 | 177 | 9.7 | 11.3 | 0.00 | 0.00 | 0.00 | 86 | 1005.0 |
| 20260505082855 | 21 | 163 | 11.3 | 16.1 | 0.00 | 0.00 | 0.00 | 86 | 1005.0 |
| 20260505081854 | 21 | 95 | 11.3 | 20.9 | 0.00 | 0.00 | 0.00 | 86 | 1005.4 |
| 20260505080853 | 21 | 226 | 8.0 | 16.1 | 0.00 | 0.00 | 0.00 | 85 | 1005.4 |
| 20260505075851 | 21 | 180 | 11.3 | 14.5 | 0.00 | 0.00 | 0.00 | 85 | 1005.4 |
| 20260505074845 | 21 | 156 | 8.0 | 14.5 | 0.00 | 0.00 | 0.00 | 85 | 1005.7 |
| 20260505073845 | 21 | 202 | 14.5 | 16.1 | 0.00 | 0.00 | 0.00 | 84 | 1005.9 |
| 20260505072846 | 21 | 238 | 14.5 | 20.9 | 0.00 | 0.00 | 0.00 | 84 | 1006.1 |
| 20260505071844 | 21 | 222 | 4.8 | 8.0 | 0.00 | 0.00 | 0.00 | 84 | 1006.3 |
| 20260505070839 | 22 | 166 | 16.1 | 22.5 | 0.00 | 0.00 | 0.00 | 83 | 1006.0 |
| 20260505065836 | 22 | 214 | 9.7 | 16.1 | 0.00 | 0.00 | 0.00 | 83 | 1006.2 |
| 20260505064836 | 22 | 182 | 8.0 | 11.3 | 0.00 | 0.00 | 0.00 | 83 | 1006.7 |
| 20260505063831 | 22 | 153 | 11.3 | 22.5 | 0.00 | 0.00 | 0.00 | 82 | 1006.4 |
| 20260505062830 | 22 | 218 | 9.7 | 12.9 | 0.00 | 0.00 | 0.00 | 82 | 1006.4 |
| 20260505061829 | 22 | 164 | 9.7 | 11.3 | 0.00 | 0.00 | 0.00 | 82 | 1006.6 |
| 20260505060825 | 22 | 176 | 14.5 | 17.7 | 0.00 | 0.00 | 0.00 | 82 | 1006.5 |
| 20260505055823 | 22 | 138 | 14.5 | 17.7 | 0.00 | 0.00 | 0.00 | 81 | 1006.5 |
| 20260505054823 | 21 | 223 | 8.0 | 14.5 | 0.00 | 0.00 | 0.00 | 81 | 1006.8 |
| 20260505053818 | 22 | 166 | 4.8 | 4.8 | 0.00 | 0.00 | 0.00 | 80 | 1007.0 |
| 20260505052817 | 22 | 171 | 9.7 | 14.5 | 0.00 | 0.00 | 0.00 | 80 | 1007.0 |
| 20260505051816 | 22 | 187 | 8.0 | 11.3 | 0.00 | 0.00 | 0.00 | 79 | 1006.9 |
| 20260505050812 | 22 | 203 | 8.0 | 9.7 | 0.00 | 0.00 | 0.00 | 79 | 1007.1 |
| 20260505040803 | 22 | 172 | 6.4 | 8.0 | 0.00 | 0.00 | 0.00 | 77 | 1007.4 |
| 20260505035803 | 22 | 120 | 8.0 | 12.9 | 0.00 | 0.00 | 0.00 | 76 | 1007.3 |
| 20260505034802 | 22 | 193 | 4.8 | 4.8 | 0.00 | 0.00 | 0.00 | 76 | 1007.2 |
| 20260505033802 | 22 | 178 | 3.2 | 3.2 | 0.00 | 0.00 | 0.00 | 75 | 1007.0 |
| 20260505032757 | 23 | 99 | 8.0 | 11.3 | 0.00 | 0.00 | 0.00 | 75 | 1007.4 |
| 20260505031756 | 23 | 151 | 8.0 | 9.7 | 0.00 | 0.00 | 0.00 | 75 | 1007.3 |
| 20260505030756 | 23 | 194 | 4.8 | 4.8 | 0.00 | 0.00 | 0.00 | 75 | 1007.5 |
| 20260505025753 | 23 | 202 | 11.3 | 16.1 | 0.00 | 0.00 | 0.00 | 74 | 1007.4 |
| 20260505024749 | 23 | 160 | 1.6 | 3.2 | 0.00 | 0.00 | 0.00 | 74 | 1007.4 |
| 20260505023749 | 23 | 185 | 6.4 | 8.0 | 0.00 | 0.00 | 0.00 | 73 | 1007.4 |
| 20260505022749 | 23 | 189 | 6.4 | 8.0 | 0.00 | 0.00 | 0.00 | 73 | 1007.2 |
| 20260505021749 | 23 | 169 | 8.0 | 11.3 | 0.00 | 0.00 | 0.00 | 73 | 1007.2 |
| 20260505020747 | 23 | 185 | 9.7 | 12.9 | 0.00 | 0.00 | 0.00 | 72 | 1007.2 |
| 20260505015746 | 23 | 145 | 11.3 | 14.5 | 0.00 | 0.00 | 0.00 | 72 | 1007.3 |
| 20260505014746 | 23 | 120 | 8.0 | 11.3 | 0.00 | 0.00 | 0.00 | 71 | 1007.0 |
| 20260505013745 | 23 | 153 | 9.7 | 14.5 | 0.00 | 0.00 | 0.00 | 71 | 1007.2 |
| 20260505012740 | 23 | 189 | 4.8 | 4.8 | 0.00 | 0.00 | 0.00 | 70 | 1007.2 |
| 20260505011739 | 23 | 206 | 11.3 | 14.5 | 0.00 | 0.00 | 0.00 | 70 | 1007.0 |
| 20260505010738 | 23 | 192 | 8.0 | 9.7 | 0.00 | 0.00 | 0.00 | 69 | 1007.1 |
| 20260505005737 | 24 | 145 | 6.4 | 9.7 | 0.00 | 0.00 | 0.00 | 68 | 1007.0 |
| 20260505004737 | 24 | 155 | 9.7 | 12.9 | 0.00 | 0.00 | 0.00 | 67 | 1007.0 |
| 20260505003736 | 25 | 188 | 17.7 | 24.1 | 0.00 | 0.00 | 0.00 | 66 | 1007.3 |
| 20260505002736 | 25 | 91 | 9.7 | 14.5 | 0.00 | 0.00 | 0.00 | 65 | 1007.2 |
| 20260505001737 | 25 | 133 | 9.7 | 17.7 | 0.00 | 0.00 | 0.00 | 65 | 1007.4 |
| 20260505000737 | 25 | 198 | 14.5 | 17.7 | 0.00 | 0.00 | 0.00 | 63 | 1007.4 |
| 20260504235736 | 25 | 201 | 6.4 | 8.0 | 0.00 | 0.00 | 0.00 | 63 | 1007.1 |
| 20260504234736 | 25 | 196 | 14.5 | 24.1 | 0.00 | 0.00 | 0.00 | 63 | 1007.4 |
| 20260504233735 | 25 | 208 | 11.3 | 17.7 | 0.00 | 0.00 | 0.00 | 63 | 1007.2 |
| 20260504232734 | 25 | 106 | 12.9 | 16.1 | 0.00 | 0.00 | 0.00 | 62 | 1007.5 |
| 20260504231734 | 26 | 174 | 12.9 | 16.1 | 0.00 | 0.00 | 0.00 | 62 | 1007.5 |
| 20260504230732 | 26 | 138 | 11.3 | 14.5 | 0.00 | 0.00 | 0.00 | 61 | 1007.6 |
| 20260504225729 | 26 | 171 | 14.5 | 17.7 | 0.00 | 0.00 | 0.00 | 61 | 1007.8 |
| 20260504224728 | 26 | 186 | 12.9 | 17.7 | 0.00 | 0.00 | 0.00 | 60 | 1007.9 |
| 20260504223727 | 26 | 207 | 11.3 | 14.5 | 0.00 | 0.00 | 0.00 | 60 | 1007.7 |
| 20260504222726 | 27 | 176 | 11.3 | 16.1 | 0.00 | 0.00 | 0.00 | 59 | 1007.8 |
| 20260504221726 | 27 | 165 | 12.9 | 16.1 | 0.00 | 0.00 | 0.00 | 59 | 1007.9 |
| 20260504220725 | 27 | 193 | 9.7 | 12.9 | 0.00 | 0.00 | 0.00 | 59 | 1008.1 |
| 20260504215720 | 27 | 184 | 12.9 | 17.7 | 0.00 | 0.00 | 0.00 | 57 | 1008.3 |
| 20260504214718 | 26 | 158 | 4.8 | 8.0 | 0.00 | 0.00 | 0.00 | 59 | 1008.3 |
| 20260504213718 | 26 | 150 | 6.4 | 9.7 | 0.00 | 0.00 | 0.00 | 58 | 1008.5 |
| 20260504212717 | 27 | 177 | 8.0 | 11.3 | 0.00 | 0.00 | 0.00 | 56 | 1008.7 |
| 20260504211717 | 27 | 200 | 4.8 | 8.0 | 0.00 | 0.00 | 0.00 | 58 | 1008.9 |
| 20260504210716 | 27 | 156 | 8.0 | 11.3 | 0.00 | 0.00 | 0.00 | 56 | 1008.9 |
| 20260504205716 | 27 | 201 | 11.3 | 16.1 | 0.00 | 0.00 | 0.00 | 56 | 1009.2 |
| 20260504204712 | 27 | 157 | 14.5 | 17.7 | 0.00 | 0.00 | 0.00 | 53 | 1009.3 |
| 20260504203709 | 27 | 176 | 11.3 | 14.5 | 0.00 | 0.00 | 0.00 | 55 | 1009.5 |
| 20260504202706 | 27 | 137 | 14.5 | 27.4 | 0.00 | 0.00 | 0.00 | 54 | 1009.8 |
| 20260504201700 | 27 | 180 | 8.0 | 11.3 | 0.00 | 0.00 | 0.00 | 54 | 1010.1 |
| 20260504200655 | 27 | 159 | 11.3 | 12.9 | 0.00 | 0.00 | 0.00 | 54 | 1010.1 |
| 20260504195653 | 27 | 173 | 12.9 | 16.1 | 0.00 | 0.00 | 0.00 | 54 | 1010.4 |
| 20260504194652 | 26 | 121 | 11.3 | 14.5 | 0.00 | 0.00 | 0.00 | 54 | 1010.5 |
| 20260504193650 | 26 | 177 | 11.3 | 14.5 | 0.00 | 0.00 | 0.00 | 54 | 1010.4 |
| 20260504192646 | 26 | 136 | 11.3 | 14.5 | 0.00 | 0.00 | 0.00 | 53 | 1010.6 |
| 20260504191642 | 26 | 234 | 11.3 | 17.7 | 0.00 | 0.00 | 0.00 | 54 | 1011.2 |
| 20260504190640 | 26 | 145 | 11.3 | 16.1 | 0.00 | 0.00 | 0.00 | 53 | 1011.1 |
| 20260504185639 | 26 | 108 | 14.5 | 17.7 | 0.00 | 0.00 | 0.00 | 51 | 1011.1 |
| 20260504184638 | 25 | 185 | 11.3 | 17.7 | 0.00 | 0.00 | 0.00 | 51 | 1011.2 |
| 20260504183636 | 25 | 169 | 6.4 | 9.7 | 0.00 | 0.00 | 0.00 | 52 | 1011.1 |
| 20260504182631 | 25 | 214 | 14.5 | 20.9 | 0.00 | 0.00 | 0.00 | 51 | 1011.6 |
| 20260504181631 | 25 | 168 | 4.8 | 12.9 | 0.00 | 0.00 | 0.00 | 53 | 1012.1 |
| 20260504180628 | 25 | 104 | 4.8 | 11.3 | 0.00 | 0.00 | 0.00 | 54 | 1012.0 |
| 20260504175623 | 25 | 201 | 11.3 | 14.5 | 0.00 | 0.00 | 0.00 | 53 | 1012.0 |
| 20260504174618 | 25 | 121 | 6.4 | 9.7 | 0.00 | 0.00 | 0.00 | 55 | 1012.3 |
| 20260504173617 | 24 | 154 | 8.0 | 11.3 | 0.00 | 0.00 | 0.00 | 55 | 1012.4 |
| 20260504172616 | 23 | 166 | 8.0 | 12.9 | 0.00 | 0.00 | 0.00 | 56 | 1012.9 |